| time (UTC) | temp F | wind direction | speed MPH | gust MPH | rain 1hr in | rain 24hr in | rain mn in | humidity % | barometer mb |
| 20260906061509 | 62 | 344 | 1.0 | 6.0 | 0.00 | 0.00 | 0.00 | 47 | 1017.9 |
| 20260906060006 | 68 | 270 | 2.0 | 15.0 | 0.00 | 0.00 | 0.00 | 38 | 1017.9 |
| 20260906054509 | 69 | 107 | 14.0 | 24.0 | 0.00 | 0.00 | 0.00 | 37 | 1017.6 |
| 20260906053014 | 69 | 114 | 13.0 | 23.0 | 0.00 | 0.00 | 0.00 | 36 | 1017.6 |
| 20260906051530 | 70 | 94 | 11.0 | 24.0 | 0.00 | 0.00 | 0.00 | 36 | 1017.7 |
| 20260906050004 | 70 | 107 | 12.0 | 21.0 | 0.00 | 0.00 | 0.00 | 35 | 1017.7 |
| 20260906044508 | 71 | 97 | 17.0 | 25.0 | 0.00 | 0.00 | 0.00 | 33 | 1017.7 |
| 20260906043013 | 71 | 107 | 10.0 | 29.0 | 0.00 | 0.00 | 0.00 | 34 | 1017.6 |
| 20260906041519 | 71 | 90 | 16.0 | 26.0 | 0.00 | 0.00 | 0.00 | 33 | 1017.6 |
| 20260906040038 | 71 | 97 | 15.0 | 30.0 | 0.00 | 0.00 | 0.00 | 33 | 1017.3 |
| 20260906034507 | 72 | 99 | 19.0 | 26.0 | 0.00 | 0.00 | 0.00 | 32 | 1017.3 |
| 20260906033011 | 71 | 84 | 17.0 | 28.0 | 0.00 | 0.00 | 0.00 | 33 | 1017.4 |
| 20260906031547 | 72 | 94 | 19.0 | 28.0 | 0.00 | 0.00 | 0.00 | 32 | 1017.1 |
| 20260906030024 | 72 | 90 | 17.0 | 27.0 | 0.00 | 0.00 | 0.00 | 32 | 1016.8 |
| 20260906024550 | 72 | 90 | 17.0 | 26.0 | 0.00 | 0.00 | 0.00 | 31 | 1016.6 |
| 20260906023010 | 72 | 88 | 19.0 | 34.0 | 0.00 | 0.00 | 0.00 | 32 | 1016.6 |
| 20260906021514 | 71 | 102 | 9.0 | 18.0 | 0.00 | 0.00 | 0.00 | 32 | 1016.6 |
| 20260906020017 | 71 | 42 | 6.0 | 15.0 | 0.00 | 0.00 | 0.00 | 33 | 1016.8 |
| 20260906014525 | 71 | 48 | 8.0 | 12.0 | 0.00 | 0.00 | 0.00 | 34 | 1016.8 |
| 20260906013005 | 72 | 319 | 0.0 | 11.0 | 0.00 | 0.00 | 0.00 | 42 | 1017.1 |
| 20260906011513 | 74 | 59 | 2.0 | 13.0 | 0.00 | 0.00 | 0.00 | 32 | 1016.9 |
| 20260906010045 | 75 | 337 | 3.0 | 12.0 | 0.00 | 0.00 | 0.00 | 32 | 1016.9 |
| 20260906004524 | 75 | 105 | 6.0 | 9.0 | 0.00 | 0.00 | 0.00 | 32 | 1016.9 |
| 20260906003030 | 75 | 194 | 3.0 | 7.0 | 0.00 | 0.00 | 0.00 | 39 | 1016.6 |
| 20260906001509 | 77 | 352 | 4.0 | 9.0 | 0.00 | 0.00 | 0.00 | 34 | 1016.8 |
| 20260906000019 | 76 | 350 | 2.0 | 11.0 | 0.00 | 0.00 | 0.00 | 37 | 1017.0 |
| 20260905234521 | 76 | 299 | 2.0 | 5.0 | 0.00 | 0.00 | 0.00 | 39 | 1017.0 |
| 20260905233027 | 75 | 284 | 2.0 | 6.0 | 0.00 | 0.00 | 0.00 | 38 | 1017.1 |
| 20260905231530 | 75 | 340 | 2.0 | 7.0 | 0.00 | 0.00 | 0.00 | 39 | 1017.2 |
| 20260905230028 | 75 | 317 | 2.0 | 8.0 | 0.00 | 0.00 | 0.00 | 42 | 1017.2 |
| 20260905224520 | 74 | 43 | 1.0 | 6.0 | 0.00 | 0.00 | 0.00 | 42 | 1017.4 |
| 20260905223002 | 74 | 293 | 2.0 | 7.0 | 0.00 | 0.00 | 0.00 | 42 | 1017.4 |
| 20260905221508 | 74 | 259 | 2.0 | 18.0 | 0.00 | 0.00 | 0.00 | 42 | 1017.6 |
| 20260905220012 | 73 | 281 | 5.0 | 9.0 | 0.00 | 0.00 | 0.00 | 45 | 1017.7 |
| 20260905214516 | 73 | 286 | 3.0 | 7.0 | 0.00 | 0.00 | 0.00 | 44 | 1017.9 |
| 20260905213004 | 72 | 267 | 3.0 | 7.0 | 0.00 | 0.00 | 0.00 | 45 | 1018.0 |
| 20260905211508 | 72 | 352 | 3.0 | 8.0 | 0.00 | 0.00 | 0.00 | 44 | 1018.2 |
| 20260905210010 | 71 | 242 | 4.0 | 8.0 | 0.00 | 0.00 | 0.00 | 46 | 1018.3 |
| 20260905204511 | 71 | 103 | 2.0 | 4.0 | 0.00 | 0.00 | 0.00 | 45 | 1018.4 |
| 20260905203019 | 70 | 316 | 2.0 | 8.0 | 0.00 | 0.00 | 0.00 | 49 | 1018.8 |
| 20260905201505 | 69 | 341 | 3.0 | 11.0 | 0.00 | 0.00 | 0.00 | 48 | 1018.9 |
| 20260905200009 | 69 | 304 | 2.0 | 7.0 | 0.00 | 0.00 | 0.00 | 48 | 1019.2 |
| 20260905194512 | 68 | 9 | 4.0 | 10.0 | 0.00 | 0.00 | 0.00 | 49 | 1019.2 |
| 20260905193017 | 67 | 334 | 3.0 | 7.0 | 0.00 | 0.00 | 0.00 | 52 | 1019.3 |
| 20260905191524 | 67 | 290 | 5.0 | 9.0 | 0.00 | 0.00 | 0.00 | 51 | 1019.3 |
| 20260905190006 | 66 | 310 | 5.0 | 8.0 | 0.00 | 0.00 | 0.00 | 52 | 1019.6 |
| 20260905184512 | 64 | 352 | 4.0 | 8.0 | 0.00 | 0.00 | 0.00 | 54 | 1019.6 |
| 20260905183027 | 64 | 287 | 4.0 | 10.0 | 0.00 | 0.00 | 0.00 | 55 | 1019.8 |
| 20260905181521 | 63 | 307 | 1.0 | 8.0 | 0.00 | 0.00 | 0.00 | 56 | 1020.0 |
| 20260905180027 | 62 | 317 | 3.0 | 7.0 | 0.00 | 0.00 | 0.00 | 58 | 1020.2 |
| 20260905174508 | 62 | 307 | 3.0 | 6.0 | 0.00 | 0.00 | 0.00 | 60 | 1020.4 |
| 20260905173027 | 61 | 221 | 4.0 | 8.0 | 0.00 | 0.00 | 0.00 | 60 | 1020.6 |
| 20260905171518 | 60 | 198 | 2.0 | 7.0 | 0.00 | 0.00 | 0.00 | 61 | 1020.6 |
| 20260905170026 | 59 | 230 | 3.0 | 7.0 | 0.00 | 0.00 | 0.00 | 62 | 1020.8 |
| 20260905164529 | 59 | 305 | 1.0 | 6.0 | 0.00 | 0.00 | 0.00 | 63 | 1020.8 |
| 20260905163010 | 58 | 159 | 4.0 | 7.0 | 0.00 | 0.00 | 0.00 | 63 | 1020.7 |
| 20260905161515 | 58 | 270 | 3.0 | 8.0 | 0.00 | 0.00 | 0.00 | 63 | 1020.7 |
| 20260905160027 | 57 | 233 | 3.0 | 6.0 | 0.00 | 0.00 | 0.00 | 64 | 1020.6 |
| 20260905154526 | 56 | 223 | 2.0 | 7.0 | 0.00 | 0.00 | 0.00 | 67 | 1020.6 |
| 20260905153030 | 54 | 198 | 2.0 | 5.0 | 0.00 | 0.00 | 0.00 | 70 | 1020.7 |
| 20260905151514 | 52 | 167 | 3.0 | 5.0 | 0.00 | 0.00 | 0.00 | 73 | 1020.6 |
| 20260905150022 | 52 | 196 | 1.0 | 4.0 | 0.00 | 0.00 | 0.00 | 74 | 1020.5 |
| 20260905144526 | 55 | 232 | 3.0 | 4.0 | 0.00 | 0.00 | 0.00 | 68 | 1020.4 |
| 20260905143034 | 53 | 100 | 1.0 | 2.0 | 0.00 | 0.00 | 0.00 | 72 | 1020.3 |
| 20260905141523 | 51 | 103 | 1.0 | 3.0 | 0.00 | 0.00 | 0.00 | 74 | 1020.3 |
| 20260905140019 | 52 | 132 | 1.0 | 4.0 | 0.00 | 0.00 | 0.00 | 73 | 1020.1 |
| 20260905134532 | 51 | 135 | 2.0 | 4.0 | 0.00 | 0.00 | 0.00 | 73 | 1020.0 |
| 20260905133005 | 51 | 175 | 3.0 | 10.0 | 0.00 | 0.00 | 0.00 | 74 | 1019.8 |
| 20260905131509 | 50 | 148 | 3.0 | 5.0 | 0.00 | 0.00 | 0.00 | 76 | 1019.5 |
| 20260905130008 | 50 | 139 | 3.0 | 5.0 | 0.00 | 0.00 | 0.00 | 75 | 1019.1 |
| 20260905124511 | 50 | 148 | 3.0 | 5.0 | 0.00 | 0.00 | 0.00 | 75 | 1019.1 |
| 20260905123006 | 50 | 140 | 3.0 | 7.0 | 0.00 | 0.00 | 0.00 | 75 | 1019.0 |
| 20260905121504 | 50 | 132 | 5.0 | 8.0 | 0.00 | 0.00 | 0.00 | 75 | 1018.7 |
| 20260905120008 | 50 | 141 | 6.0 | 9.0 | 0.00 | 0.00 | 0.00 | 75 | 1018.7 |
| 20260905114507 | 51 | 139 | 8.0 | 11.0 | 0.00 | 0.00 | 0.00 | 74 | 1018.4 |
| 20260905113003 | 51 | 149 | 5.0 | 11.0 | 0.00 | 0.00 | 0.00 | 73 | 1018.3 |
| 20260905111508 | 51 | 164 | 7.0 | 9.0 | 0.00 | 0.00 | 0.00 | 73 | 1018.3 |
| 20260905110011 | 51 | 161 | 5.0 | 9.0 | 0.00 | 0.00 | 0.00 | 74 | 1018.3 |
| 20260905104513 | 52 | 155 | 5.0 | 14.0 | 0.00 | 0.00 | 0.00 | 72 | 1018.1 |
| 20260905103009 | 53 | 159 | 13.0 | 16.0 | 0.00 | 0.00 | 0.00 | 72 | 1017.9 |
| 20260905101511 | 52 | 153 | 10.0 | 16.0 | 0.00 | 0.00 | 0.00 | 74 | 1017.8 |
| 20260905100005 | 51 | 146 | 11.0 | 18.0 | 0.00 | 0.00 | 0.00 | 75 | 1017.6 |
| 20260905094513 | 52 | 175 | 7.0 | 9.0 | 0.00 | 0.00 | 0.00 | 72 | 1017.6 |
| 20260905093013 | 51 | 95 | 7.0 | 11.0 | 0.00 | 0.00 | 0.00 | 74 | 1017.5 |
| 20260905091515 | 51 | 123 | 2.0 | 5.0 | 0.00 | 0.00 | 0.00 | 74 | 1018.2 |
| 20260905090009 | 51 | 157 | 5.0 | 6.0 | 0.00 | 0.00 | 0.00 | 74 | 1018.0 |
| 20260905084509 | 53 | 161 | 2.0 | 3.0 | 0.00 | 0.00 | 0.00 | 70 | 1017.2 |
| 20260905083020 | 54 | 132 | 1.0 | 5.0 | 0.00 | 0.00 | 0.00 | 66 | 1017.5 |
| 20260905081515 | 55 | 313 | 0.0 | 4.0 | 0.00 | 0.00 | 0.00 | 63 | 1016.8 |
| 20260905080019 | 55 | 282 | 2.0 | 9.0 | 0.00 | 0.00 | 0.00 | 60 | 1016.3 |
| 20260905074513 | 55 | 72 | 0.0 | 2.0 | 0.00 | 0.00 | 0.00 | 57 | 1016.0 |
| 20260905073010 | 55 | 192 | 0.0 | 9.0 | 0.00 | 0.00 | 0.00 | 55 | 1015.7 |
| 20260905071519 | 55 | 188 | 4.0 | 8.0 | 0.00 | 0.00 | 0.00 | 52 | 1015.7 |
| 20260905070023 | 55 | 158 | 8.0 | 11.0 | 0.00 | 0.00 | 0.00 | 50 | 1015.7 |
| 20260905064521 | 59 | 133 | 2.0 | 3.0 | 0.00 | 0.00 | 0.00 | 44 | 1015.6 |
| 20260905063007 | 60 | 331 | 1.0 | 4.0 | 0.00 | 0.00 | 0.00 | 43 | 1015.3 |